Wind_Gust
14 14 14 15 15 15 15 15 14 15 16 18 16 15 15 15 16 16 17 16 16 16 15 16 16 16 16 16 16 16 15 14 13 12 11 11 11 11 10 10 11 11 10 10 9 8 9 10 11 11 9 9 10 9 10 11 10 10 11 13 13 11 12 14 16 16 13 8 8 11 10 10 12 10 12 10 9 9 5 10 10 9 11 11 15
15 14 13 14 15 15 15 14 15 15 16 17 16 16 15 15 14 15 16 16 16 16 16 15 15 16 16 16 16 16 16 16 14 13 13 13 12 10 10 10 9 10 8 9 10 8 7 8 11 10 9 10 9 11 12 9 10 12 11 11 14 12 8 12 14 14 15 12 11 10 11 10 10 10 9 9 8 8 10 9 8 9 12 12 14
17 17 16 16 15 14 14 13 14 15 16 16 17 17 16 15 15 15 16 16 16 16 16 16 16 16 15 15 15 15 15 15 14 14 13 13 14 12 11 10 10 10 9 9 10 10 9 8 9 10 8 9 8 8 8 8 8 11 11 11 13 11 11 10 11 14 13 14 10 11 10 10 9 11 9 8 9 10 10 9 9 10 10 10 13
17 17 17 16 15 14 13 13 13 14 15 16 17 16 17 16 16 15 16 16 18 16 16 17 16 15 14 14 15 14 14 13 14 14 14 13 13 13 13 11 12 11 10 10 10 10 9 9 9 10 10 10 10 9 10 8 8 11 11 12 11 11 10 8 8 8 10 12 10 9 10 7 9 9 10 9 8 9 11 10 11 10 10 12 12
15 15 15 14 13 13 13 14 14 15 16 15 17 18 17 17 16 17 15 16 16 17 18 17 16 16 15 15 15 14 14 13 13 12 11 10 10 10 11 12 12 13 13 13 8 12 12 12 11 11 10 10 10 10 10 9 10 10 11 13 12 11 9 8 9 8 7 9 11 9 8 9 9 8 11 15 12 11 9 11 12 12 10 10 14
12 12 13 14 14 13 13 13 15 16 16 16 17 18 18 17 17 16 17 17 16 17 17 17 17 17 16 15 13 13 12 11 12 13 13 13 12 12 12 13 13 13 14 15 16 15 14 15 14 13 12 13 11 11 10 11 11 10 11 12 13 11 9 9 8 8 8 9 10 12 9 7 9 8 10 10 12 14 14 15 16 11 12 13 13
12 13 13 13 14 15 14 14 14 14 15 16 18 19 19 17 17 17 16 15 15 18 17 17 16 16 16 14 14 13 12 12 11 10 11 13 14 15 14 14 14 13 13 14 15 16 16 16 16 15 15 16 15 13 13 12 11 11 11 10 10 11 11 11 10 10 9 9 10 8 10 11 8 9 9 11 11 11 12 17 19 17 14 14 16
12 13 13 13 13 14 14 14 15 15 15 16 18 18 18 18 16 15 14 14 15 18 17 17 15 16 14 14 13 13 13 14 13 13 14 13 13 14 14 14 14 14 14 14 14 14 15 15 15 16 15 15 14 14 11 12 12 12 10 11 11 12 12 11 10 12 12 10 13 11 8 10 9 7 9 9 12 14 15 16 19 19 18 16 16
13 13 13 13 13 12 12 12 13 14 15 16 16 17 18 18 17 15 14 14 15 16 16 15 15 15 15 13 14 12 11 11 11 12 13 15 14 14 13 13 13 13 13 13 13 14 15 15 16 17 17 9 8 8 6 6 11 11 12 12 12 12 12 11 11 10 11 13 12 10 12 13 11 11 12 12 13 15 16 15 18 18 18 19 18
13 12 12 12 10 11 12 11 12 13 14 15 15 15 16 16 16 15 16 16 15 14 15 14 14 14 14 13 13 12 11 11 11 9 9 12 11 10 10 10 11 10 11 11 12 12 13 13 14 7 7 8 7 6 5 5 4 11 13 14 12 13 12 11 9 9 11 14 12 12 14 13 11 10 12 11 11 12 14 15 18 19 18 18 18
13 12 12 12 11 11 12 12 12 13 13 13 13 14 15 13 14 14 14 13 13 12 11 12 12 11 12 12 13 11 11 13 8 5 3 5 10 9 9 9 9 8 9 9 10 10 11 11 11 11 9 6 13 9 6 7 7 3 9 11 7 12 11 8 10 10 11 10 8 10 10 10 9 11 12 12 12 13 15 16 18 18 18 20 22
11 11 11 11 11 11 12 12 12 13 12 13 14 15 15 15 14 12 9 9 11 11 11 11 11 11 11 12 11 11 12 7 5 4 4 3 7 11 8 8 9 8 9 9 9 10 10 10 9 9 9 11 11 15 11 7 9 10 12 11 11 12 9 9 9 7 6 9 8 7 10 10 12 12 11 13 14 16 16 17 17 17 19 19 20
12 12 10 10 10 9 11 12 12 13 12 11 11 11 14 14 15 14 11 10 10 12 10 11 11 11 12 13 13 12 12 4 2 4 5 5 5 10 10 8 8 8 9 8 10 10 10 9 8 7 12 8 12 14 15 15 10 13 15 15 14 12 11 12 11 12 7 7 7 8 8 11 12 11 12 13 13 16 16 17 16 17 18 21 21
15 14 13 12 11 10 10 10 11 12 12 12 12 12 12 11 11 10 11 10 13 13 12 12 13 13 12 12 13 14 14 6 3 5 5 5 5 8 11 8 8 10 10 10 8 10 10 11 11 9 12 12 11 15 16 18 19 19 18 16 16 15 11 11 10 10 9 9 7 8 7 9 12 11 10 10 13 16 17 18 17 18 20 21 20
17 16 15 14 12 11 12 12 12 12 12 12 11 12 12 14 15 14 14 16 18 16 14 13 12 12 12 11 13 13 14 6 2 3 5 5 6 8 10 9 10 11 11 11 10 10 10 9 9 9 8 9 11 11 16 18 18 17 17 15 14 13 12 11 11 10 9 8 7 7 8 8 9 9 9 10 11 14 15 18 19 20 21 21 23
15 15 15 15 15 14 13 13 13 13 14 14 14 14 13 13 15 14 14 14 13 12 13 13 12 12 11 11 12 13 12 7 4 3 4 6 9 11 10 10 11 11 12 12 11 12 12 11 12 13 13 14 10 6 8 17 17 17 16 15 14 13 14 9 9 11 13 12 11 11 11 13 9 12 12 13 14 15 16 19 19 20 21 21 21
15 15 15 15 15 14 14 14 14 12 12 13 14 14 13 14 14 14 14 14 14 13 13 12 13 13 12 11 11 13 12 7 3 5 7 8 10 10 10 11 12 13 12 12 13 15 15 14 12 15 16 17 10 9 7 5 14 15 15 14 13 12 13 12 7 4 5 6 7 6 6 3 1 3 5 7 12 13 18 19 18 15 18 22 21
15 15 16 15 16 16 16 15 13 12 11 11 12 11 11 11 11 10 12 12 13 13 13 13 12 11 11 11 9 10 13 8 3 4 5 7 11 11 10 12 12 13 13 13 14 16 18 18 12 16 18 17 8 8 9 10 11 11 12 13 12 12 12 11 11 11 4 4 5 6 8 8 9 10 11 10 11 11 17 18 17 18 20 19 23
14 14 13 12 13 13 14 17 18 17 15 13 12 12 11 11 11 11 11 11 12 13 13 14 12 11 11 11 3 7 13 10 4 3 4 5 11 10 9 12 11 12 13 14 13 15 17 15 18 18 16 12 9 9 9 8 10 9 9 9 9 10 10 9 10 11 13 14 16 17 17 15 18 19 17 17 14 14 18 18 18 18 20 20 20
12 9 9 8 8 10 10 11 12 14 15 14 13 11 11 11 13 12 11 12 14 12 12 12 12 11 11 11 10 8 11 13 10 2 3 4 8 15 9 10 10 10 10 13 13 14 16 17 16 12 12 12 12 12 12 13 10 10 8 8 8 9 9 8 11 12 11 12 12 13 15 13 14 15 13 19 22 19 17 16 16 18 21 23 22
13 12 11 11 13 13 12 13 13 14 14 16 15 13 14 14 13 12 12 11 12 11 10 10 10 10 10 9 10 10 9 10 12 2 3 3 5 10 10 8 9 9 10 11 12 13 14 16 17 11 12 14 14 13 13 13 11 11 12 13 14 13 11 11 13 7 13 12 13 14 14 13 13 14 13 13 13 12 13 15 18 19 21 22 24
12 11 11 13 13 15 15 15 14 15 15 16 15 15 15 15 15 16 16 15 15 14 12 12 11 11 11 11 10 11 10 6 11 8 3 3 4 6 12 9 10 8 8 9 9 10 12 15 17 12 12 13 13 13 13 12 11 15 17 9 6 6 11 10 11 11 12 12 13 13 14 13 13 12 12 13 13 11 14 16 17 19 22 23 24
13 12 12 12 14 13 12 15 16 16 16 17 18 19 18 19 19 19 18 17 17 16 14 13 12 13 13 13 13 13 12 13 7 9 7 3 3 5 9 8 4 12 10 8 9 10 14 17 17 10 12 12 13 13 13 12 9 15 8 5 3 3 11 12 10 13 12 13 13 14 14 13 13 13 12 13 13 14 17 18 19 20 20 20 20
14 13 12 12 12 12 13 13 16 17 18 18 19 18 19 19 19 19 18 18 18 17 16 14 14 14 15 14 14 15 14 13 9 7 8 4 3 5 6 7 5 10 10 9 8 13 15 17 17 12 12 13 12 11 11 10 16 8 5 5 6 9 13 10 11 10 12 13 13 13 13 12 13 13 13 15 17 18 19 18 18 18 19 20 21
14 14 13 13 12 13 12 13 15 17 18 19 20 20 19 19 20 19 18 19 18 18 17 17 16 15 14 13 13 13 14 13 14 12 8 9 7 7 8 8 9 10 10 11 11 16 17 19 17 14 15 15 17 16 12 10 9 6 5 7 11 14 9 10 10 11 13 10 12 13 13 13 13 15 16 16 17 17 17 17 16 18 19 20 20
16 15 16 15 14 15 14 13 14 17 18 20 22 22 21 22 22 21 21 21 20 20 19 18 18 17 16 14 14 14 14 14 14 14 10 9 8 9 9 9 11 16 17 21 18 19 18 16 16 16 15 16 19 14 14 16 8 9 8 12 13 8 9 11 11 11 12 12 12 14 14 15 16 16 16 16 17 17 17 18 18 18 18 19 20
16 16 15 16 15 15 14 15 17 17 18 21 22 23 23 23 24 23 22 22 22 21 20 20 20 19 16 15 14 15 15 15 15 15 17 16 16 15 16 16 12 13 18 20 16 21 21 17 15 9 11 11 11 8 8 11 17 18 17 10 9 9 10 12 12 11 12 14 14 15 15 15 15 16 16 16 17 17 16 17 19 19 18 19 21
16 17 17 17 18 17 17 4 10 18 20 20 23 24 24 24 25 25 24 23 23 23 22 21 20 19 18 16 15 15 17 18 18 17 16 17 17 18 17 17 17 15 17 18 18 20 20 12 16 18 17 16 16 15 13 11 9 9 8 7 7 8 9 10 8 11 11 13 14 14 15 15 16 16 17 17 17 17 16 17 17 19 19 20 21
16 17 18 18 19 17 18 18 17 18 20 20 21 23 23 24 26 24 22 18 16 17 20 20 20 18 17 16 15 15 15 17 17 6 13 7 11 17 18 18 18 16 12 13 20 20 19 19 13 14 13 8 7 7 10 9 4 7 9 10 9 9 12 13 13 13 12 13 14 13 13 16 16 16 17 18 17 18 17 18 18 19 20 19 20
18 19 19 18 18 18 18 19 19 20 21 21 21 15 7 6 9 16 14 9 8 9 8 14 17 16 17 16 13 15 15 10 15 15 11 9 7 9 8 8 7 15 17 15 14 17 14 13 12 11 10 9 9 7 6 5 5 4 5 3 10 11 13 12 12 13 12 12 13 12 13 14 15 17 17 18 19 19 18 14 20 19 19 18 19
20 19 18 19 16 14 15 18 18 22 21 21 20 20 18 12 4 4 5 6 7 7 7 5 7 12 12 13 16 15 15 14 13 13 13 11 10 11 12 14 17 19 17 16 15 14 14 13 12 10 9 8 7 6 4 6 4 4 4 5 7 6 6 10 12 10 10 10 12 12 13 14 15 15 16 18 19 20 19 17 18 19 19 19 19
21 20 20 18 14 13 17 17 17 23 23 22 22 22 23 21 14 6 5 6 5 4 4 5 4 3 4 8 8 15 10 10 13 13 12 13 12 13 14 16 17 17 15 10 12 13 13 12 12 10 9 8 7 6 6 5 4 3 3 4 6 7 7 7 10 12 9 11 12 12 13 14 15 15 16 16 16 18 19 17 17 16 17 19 20
21 20 20 19 18 13 18 18 19 20 24 24 24 24 25 25 26 20 13 5 4 4 6 6 6 4 3 3 4 7 6 10 12 13 14 14 15 15 16 17 17 15 9 10 12 12 11 10 9 9 10 8 8 7 6 8 4 3 4 5 6 7 7 8 3 11 9 11 13 13 14 14 14 14 14 15 16 18 17 18 17 17 17 19 19
20 21 21 21 22 21 19 18 20 21 22 23 23 24 24 24 24 24 21 17 14 9 4 5 6 8 6 6 6 6 8 13 14 15 15 15 16 17 16 16 12 11 7 11 11 11 10 9 11 12 12 8 7 7 6 5 4 4 4 4 9 11 12 11 11 8 10 10 11 11 12 13 13 16 17 16 16 17 18 17 17 18 17 18 20
22 15 10 11 21 22 20 19 21 22 22 22 23 24 25 23 24 25 27 24 23 23 21 16 7 4 11 9 8 8 10 13 15 16 17 18 19 19 17 22 19 15 13 12 13 13 11 9 9 11 11 8 7 6 6 8 5 4 4 4 8 8 7 8 9 9 10 10 10 11 12 13 14 14 16 17 18 19 18 17 17 17 18 19 20
24 24 21 19 21 22 22 21 21 22 22 22 22 22 20 20 22 23 21 22 20 20 19 19 17 7 6 5 8 10 11 13 15 17 19 20 21 21 22 20 19 18 13 14 14 12 12 12 11 11 11 10 10 7 7 7 5 4 9 8 5 7 8 8 9 10 10 11 10 10 11 14 15 16 17 17 15 17 18 17 18 17 18 19 19
23 21 18 17 19 17 20 21 20 17 9 14 18 18 17 17 17 19 20 22 22 22 22 19 18 16 11 11 10 7 10 13 15 16 18 19 19 16 17 16 15 15 14 13 14 14 10 10 10 10 10 9 8 10 7 7 7 8 3 6 7 6 8 10 10 9 12 12 12 11 11 15 16 16 18 18 18 18 17 17 17 17 18 18 16
21 22 21 19 19 19 19 19 16 3 13 16 17 17 16 18 18 19 17 15 14 15 17 19 11 19 13 12 10 12 19 15 17 13 11 12 16 17 16 15 16 16 15 13 15 14 10 9 10 10 11 11 9 9 7 5 4 3 5 5 7 5 4 11 6 6 8 11 12 12 14 15 16 17 17 18 18 18 19 18 19 19 18 17 16
20 15 14 14 14 19 16 17 15 13 14 15 15 13 13 13 13 12 16 15 12 15 14 18 19 18 13 16 19 19 22 21 20 20 21 20 17 13 13 15 15 16 14 12 12 12 10 9 9 7 7 8 8 7 6 5 3 3 6 7 8 8 8 10 9 9 11 13 13 13 14 16 17 18 17 17 17 17 18 18 18 18 18 19 19
19 19 15 15 19 19 16 12 13 13 12 11 10 11 12 14 16 13 11 11 8 9 15 13 12 13 14 17 19 20 17 17 17 18 19 18 16 13 14 14 13 13 13 12 11 9 9 9 8 8 7 7 7 6 6 3 3 3 5 7 9 8 9 8 10 10 11 13 13 14 15 16 17 18 17 17 17 17 17 18 18 18 18 17 19
16 16 9 7 12 16 15 14 14 13 12 10 10 13 10 10 11 8 11 10 11 10 11 13 12 12 13 15 9 10 16 16 16 15 14 13 9 7 8 10 12 11 11 11 11 9 9 9 8 8 9 8 8 7 6 6 4 5 6 7 7 9 9 7 7 9 9 10 13 14 15 16 16 17 17 18 13 16 17 18 18 18 18 17 18
14 13 13 13 13 15 14 14 11 11 8 9 11 9 10 12 12 10 8 7 9 12 12 12 15 16 14 11 10 8 14 15 14 14 13 12 8 8 9 10 11 10 11 10 9 9 8 8 8 8 8 7 6 4 5 3 4 7 7 8 9 9 10 10 9 7 9 10 11 13 14 16 17 17 17 11 18 18 18 18 19 19 19 19 18
11 13 12 13 15 12 10 9 9 10 9 9 9 7 11 10 8 9 10 12 14 15 13 14 16 16 15 9 13 10 15 16 10 12 11 11 10 9 10 10 10 10 9 9 8 7 8 8 7 9 8 6 4 4 3 4 6 8 8 7 8 9 9 9 9 9 9 9 11 12 14 15 16 16 17 16 18 18 18 18 18 19 18 18 17
13 14 12 11 11 12 10 10 12 14 11 12 13 13 12 13 14 14 14 13 14 15 17 17 15 14 12 13 12 12 12 12 11 11 11 10 10 10 11 11 12 11 10 9 8 8 8 10 9 8 6 8 8 7 6 7 7 7 8 9 7 7 8 9 10 10 12 13 14 15 15 14 15 16 16 16 17 18 18 18 19 19 20 19 18
11 12 12 12 11 12 13 14 16 15 13 12 13 14 14 15 16 16 17 18 18 18 15 13 12 12 12 12 13 12 12 11 11 10 11 12 12 12 12 12 12 11 10 9 9 6 5 6 6 6 5 7 5 3 3 6 7 7 8 9 8 9 9 10 10 11 13 14 16 16 16 16 16 17 17 17 17 17 18 17 18 15 19 19 19
12 11 11 12 12 13 14 16 14 14 13 12 12 14 13 12 12 13 13 14 15 16 16 14 13 11 11 13 12 13 13 12 11 12 15 13 13 13 11 11 11 10 10 10 9 7 8 7 7 7 6 5 4 4 4 3 4 6 5 4 7 8 9 9 11 13 14 14 16 16 17 16 17 17 16 20 19 18 18 18 17 18 19 19 18
13 13 12 12 12 12 12 13 12 13 13 13 12 12 11 12 13 12 12 13 14 16 16 16 16 13 12 12 12 12 13 12 13 13 13 12 12 12 11 9 10 9 10 10 8 10 9 8 7 6 5 5 6 4 5 6 6 7 4 6 7 9 10 13 14 14 15 14 15 17 17 17 18 18 18 18 18 18 17 19 19 18 18 18 18
12 12 12 13 13 14 13 13 14 11 14 12 11 10 11 13 14 14 14 14 14 15 15 15 16 17 16 15 15 15 15 14 15 15 14 13 11 11 10 8 8 9 8 9 8 8 7 7 7 5 5 4 3 4 5 5 5 6 7 6 9 13 14 14 15 15 14 16 16 16 17 18 18 18 18 18 18 19 20 20 19 20 18 18 16
12 12 13 13 14 14 13 14 13 14 14 13 13 14 13 14 14 13 13 12 12 14 15 16 17 18 18 18 18 17 17 15 14 13 13 12 11 10 10 8 6 7 8 8 9 8 8 8 6 5 5 4 5 5 4 5 5 6 7 7 11 13 13 13 14 15 15 19 17 16 16 17 17 17 18 17 18 19 19 18 18 19 19 16 17
13 12 13 13 13 13 13 14 15 15 14 13 13 14 14 14 14 15 15 15 17 17 17 17 18 18 18 18 17 16 16 14 13 12 11 11 10 9 10 8 7 7 8 7 7 6 6 6 4 4 4 5 5 5 5 5 6 7 8 11 11 14 14 15 14 13 16 16 18 18 17 17 16 17 17 17 17 17 18 18 18 18 18 17 16
12 13 13 14 14 13 13 14 17 17 16 16 15 15 16 15 15 15 17 17 17 17 17 17 17 17 17 17 15 14 14 14 14 12 11 11 10 10 10 9 9 8 8 7 8 8 7 5 6 5 4 4 5 5 5 5 6 10 10 10 12 16 16 16 17 14 16 16 19 17 16 15 15 17 17 17 17 17 17 17 17 17 17 17 16
Wind_Speed
7 7 6 7 8 8 8 7 8 7 9 10 8 7 7 8 8 8 8 7 7 7 7 7 7 7 7 7 7 7 7 6 5 5 4 4 3 4 4 3 3 4 3 3 2 2 2 3 3 3 2 2 3 2 3 3 3 3 3 4 4 3 4 5 6 6 4 2 2 3 2 3 3 2 3 2 2 1 1 2 2 2 3 3 6
7 6 6 6 8 8 8 7 7 7 9 9 9 8 7 7 7 8 8 8 8 7 8 7 7 7 7 8 7 8 8 7 6 5 5 5 5 3 3 3 2 3 2 2 2 0 1 1 3 2 1 2 0 2 3 1 2 3 3 3 4 3 2 3 5 5 6 4 3 3 3 2 1 2 2 2 1 2 1 1 1 1 3 4 4
9 9 8 8 8 8 7 7 7 8 9 8 9 8 8 8 7 8 8 7 8 7 8 7 7 7 7 6 7 6 7 7 6 6 6 6 6 5 4 3 3 3 3 2 2 2 2 1 2 2 1 2 1 1 1 1 0 3 3 3 4 3 3 2 3 4 4 4 2 3 2 2 2 2 1 1 2 2 2 1 2 1 1 3 4
9 9 9 9 8 8 7 6 7 7 8 7 9 9 8 8 8 8 7 7 8 8 8 8 7 6 6 6 6 6 6 5 6 6 6 6 5 5 5 4 4 4 3 3 2 2 2 2 2 3 3 3 3 2 2 1 1 2 3 4 3 3 3 1 1 1 2 3 1 1 2 1 2 1 2 1 1 2 3 2 3 2 2 3 3
7 7 8 8 7 7 7 7 7 8 8 7 9 9 9 8 7 8 8 7 8 8 8 8 7 7 6 6 6 6 5 5 5 5 4 3 3 3 4 4 4 4 5 5 5 4 5 5 4 3 3 3 3 3 3 3 2 3 3 3 3 3 2 1 1 0 1 0 2 2 1 1 1 1 2 5 3 3 2 4 4 4 3 3 5
5 5 6 7 6 7 7 7 7 8 8 8 9 9 9 9 9 8 8 9 9 8 8 7 7 7 7 7 6 5 4 4 4 5 5 5 4 4 3 4 4 4 5 6 6 6 6 6 6 6 5 5 4 4 2 4 3 3 3 4 3 3 1 1 1 1 1 1 2 4 2 0 2 1 2 2 4 5 5 6 7 4 4 5 5
5 5 6 6 6 6 6 6 6 7 7 7 8 8 8 8 9 8 8 8 8 8 8 7 7 7 7 6 6 5 4 4 4 3 3 4 4 4 4 5 4 4 4 4 5 5 6 6 7 6 7 7 6 5 5 4 3 4 3 3 2 3 4 3 3 3 2 2 2 2 1 3 1 2 1 3 3 3 4 7 8 6 5 5 7
5 6 6 5 5 6 6 7 7 7 7 7 8 8 8 8 8 7 7 7 7 7 7 7 6 6 5 6 4 4 4 4 4 4 4 4 4 4 4 4 5 5 5 5 5 5 6 6 6 6 6 6 4 5 3 3 4 5 3 3 4 4 5 3 3 4 4 3 5 4 2 3 2 0 2 2 4 5 5 6 8 8 7 6 7
6 6 6 6 6 6 5 5 6 6 6 7 7 7 7 7 7 7 7 6 5 5 5 6 6 6 5 4 4 3 2 2 1 1 3 4 4 5 4 4 4 4 4 4 4 4 4 5 5 6 6 4 5 3 1 2 4 4 4 5 5 4 4 4 4 3 4 5 5 3 4 5 4 3 4 4 4 6 6 6 7 8 7 8 7
6 5 5 5 4 5 5 4 5 5 6 6 6 6 6 6 6 6 5 5 4 3 4 4 4 4 4 3 3 2 1 2 6 8 7 4 3 2 2 3 3 3 3 3 3 4 4 4 4 1 2 3 4 5 4 1 1 1 1 5 5 5 5 5 4 2 4 6 5 4 5 5 4 3 4 3 3 4 5 6 8 8 8 8 8
5 4 5 4 4 4 4 5 5 5 4 5 5 5 5 6 5 4 4 4 3 1 1 3 2 2 3 2 3 3 2 5 7 5 2 5 4 2 3 3 2 2 2 2 2 2 3 3 3 6 6 5 6 7 6 4 2 2 8 8 5 3 3 2 3 4 4 3 3 3 3 3 2 3 4 4 4 4 6 6 7 7 7 8 9
4 4 4 4 4 4 4 5 5 5 5 5 5 5 7 6 6 5 2 3 4 2 3 2 2 2 2 3 3 3 4 5 5 3 2 1 6 3 2 2 2 1 1 0 1 1 2 2 2 2 2 1 3 7 6 7 8 9 9 9 9 10 8 2 2 2 1 3 2 1 3 3 4 4 3 4 5 6 6 7 7 7 8 8 8
4 4 3 3 3 2 3 4 5 5 5 4 4 4 5 5 5 4 4 4 2 1 1 1 2 3 4 5 5 4 4 4 1 3 3 4 5 7 1 2 1 2 1 1 2 2 3 2 0 1 4 4 3 4 5 7 7 10 12 12 10 10 9 9 10 6 2 2 2 2 2 4 5 3 4 4 5 6 7 7 6 7 8 9 8
6 6 5 4 3 3 2 3 4 5 5 5 5 5 5 4 4 4 4 4 3 3 4 4 5 5 5 5 5 6 6 4 2 2 3 3 5 6 2 1 2 3 3 2 1 2 2 3 2 2 5 4 3 4 5 7 8 9 9 8 7 8 9 10 9 8 5 2 1 2 1 2 4 4 3 3 5 6 7 8 8 8 9 9 10
8 7 7 6 5 4 4 4 4 4 4 4 4 5 5 6 6 5 5 6 7 7 6 6 5 5 4 4 5 5 5 3 0 2 3 4 5 7 1 2 2 3 3 4 3 3 3 2 2 2 2 1 2 3 6 7 8 7 8 7 6 6 5 4 3 2 2 1 1 1 2 2 2 2 2 2 4 5 6 8 9 9 10 11 11
6 6 6 6 6 5 5 5 5 5 5 4 5 5 6 6 7 6 6 6 5 5 5 5 5 5 4 4 5 5 4 5 2 3 3 5 6 4 2 1 2 3 4 4 4 4 4 3 4 4 4 6 7 4 3 7 7 8 7 7 6 5 5 4 4 6 6 5 4 4 4 6 6 4 5 5 5 6 7 8 9 9 9 8 9
4 5 5 6 6 6 6 6 6 5 5 5 6 6 6 6 6 6 6 6 6 6 5 5 5 5 5 4 4 5 4 4 2 2 4 6 6 3 2 2 3 4 4 4 5 5 5 5 4 6 7 7 7 9 7 3 6 6 6 6 5 4 5 4 4 4 5 5 5 5 4 2 1 1 2 3 5 6 7 8 7 6 7 9 9
6 5 5 5 5 5 5 5 5 5 4 4 5 4 4 4 4 3 4 5 5 5 5 5 4 4 4 4 2 3 4 4 1 3 5 7 8 3 3 3 4 4 5 4 5 6 8 13 9 7 8 7 7 8 7 6 4 4 5 5 4 4 4 4 3 3 3 3 4 5 7 7 7 7 7 7 8 7 7 7 7 7 8 8 9
5 4 4 4 4 3 3 4 5 6 6 5 5 5 4 3 3 3 3 3 4 4 4 4 4 4 4 4 2 1 5 5 2 2 4 5 6 3 2 3 2 3 3 5 5 6 7 9 14 12 9 7 7 8 8 5 3 2 3 2 2 3 3 3 3 3 5 6 6 7 7 8 8 8 8 13 12 11 8 8 7 7 8 8 8
4 2 0 0 1 2 2 3 4 5 6 6 5 5 4 4 5 4 4 3 4 4 4 3 4 3 4 4 3 2 4 5 4 1 3 4 7 6 2 3 3 2 0 3 4 6 6 7 9 10 10 10 10 10 10 11 3 2 1 1 1 2 2 1 3 4 4 4 4 4 6 5 6 6 5 9 10 10 8 7 7 7 9 10 10
4 4 4 3 4 4 4 4 5 5 5 6 6 5 5 6 5 5 4 3 4 3 2 2 3 3 3 2 3 3 2 3 5 1 2 3 5 7 3 2 2 2 2 2 1 3 4 6 7 7 10 11 11 11 11 11 10 4 4 5 6 5 6 2 5 4 5 4 5 6 5 5 5 5 5 5 5 4 5 7 8 9 9 10 10
4 3 4 5 5 6 6 6 6 6 6 6 6 7 6 7 7 7 6 6 7 7 6 5 4 4 3 4 4 4 4 4 4 4 2 2 4 6 5 1 4 1 2 2 2 1 2 5 6 7 9 10 10 10 11 10 9 6 7 8 6 6 3 3 3 3 4 4 4 5 5 4 5 4 4 4 4 4 5 6 8 8 9 10 11
4 4 4 4 5 5 5 6 6 6 6 7 8 8 8 9 9 10 9 9 9 8 7 5 5 5 5 5 5 5 5 4 4 3 5 2 1 5 9 3 2 4 3 1 2 1 5 7 8 8 10 10 10 11 11 10 8 7 6 4 1 3 7 4 3 4 4 4 5 5 5 5 4 4 4 4 4 5 6 7 8 9 9 9 10
4 4 4 4 4 4 5 6 6 6 7 8 8 9 9 9 9 8 8 8 8 8 7 6 6 6 6 5 6 6 6 5 6 5 4 4 3 5 6 7 5 4 3 2 1 2 5 7 8 10 10 10 9 9 9 8 7 6 3 4 5 7 4 2 3 3 4 5 5 4 4 4 4 4 4 4 6 7 8 8 8 9 9 9 10
5 5 5 5 4 5 4 5 5 6 7 8 9 9 9 9 8 8 8 8 8 8 7 7 7 6 6 5 5 5 5 5 5 6 7 8 7 6 7 7 8 9 2 2 4 6 12 15 14 12 11 11 13 12 10 8 6 4 4 6 7 5 1 3 3 3 4 3 4 4 4 4 4 5 6 7 7 7 8 7 8 8 9 10 10
6 6 6 6 6 6 6 5 6 7 7 8 10 10 9 10 10 9 9 9 9 8 8 7 7 7 6 5 5 5 5 5 5 6 6 7 6 8 8 8 9 13 13 11 14 16 15 13 12 13 12 11 8 5 5 6 7 8 7 8 5 1 2 2 3 3 3 4 4 4 4 5 5 6 7 7 7 7 7 7 8 8 8 8 9
7 7 7 7 7 6 6 6 6 6 7 8 9 10 10 10 11 11 9 9 9 9 9 9 8 8 7 6 5 5 6 6 5 6 7 6 6 7 7 7 10 11 9 8 10 9 11 10 7 6 7 7 7 8 6 7 8 7 6 3 1 1 1 2 3 3 3 4 5 5 5 6 6 6 7 7 7 7 7 7 8 8 8 8 9
7 7 8 8 8 7 8 2 3 7 8 8 9 10 10 11 11 11 11 10 10 10 10 10 9 8 8 7 6 5 5 6 6 6 6 6 6 7 7 7 7 6 6 7 7 9 8 9 9 7 6 6 6 5 5 3 2 0 1 0 0 1 4 5 5 3 3 4 5 5 6 6 6 7 7 7 7 7 7 7 8 8 8 9 9
8 9 8 8 8 8 8 8 7 7 7 7 7 9 10 10 12 10 11 7 5 6 8 9 9 8 7 7 5 6 5 5 5 3 4 4 3 6 7 7 7 6 7 11 9 8 8 7 4 5 4 3 2 2 2 2 0 1 1 2 2 1 2 2 4 4 4 5 5 5 5 6 7 7 7 7 8 8 7 8 8 8 9 8 9
9 9 8 8 7 7 8 8 8 8 8 8 8 5 6 5 5 4 2 6 6 7 6 3 5 5 7 6 3 5 5 0 13 13 10 8 7 9 7 7 5 8 14 13 9 6 5 4 4 4 3 3 2 2 1 1 1 1 1 1 3 1 2 3 3 4 4 4 5 4 5 5 6 7 7 8 8 8 8 8 9 8 8 8 8
9 8 8 8 7 6 6 6 7 8 9 9 8 8 5 3 2 3 5 5 6 6 6 5 6 10 5 3 8 13 13 12 11 12 11 10 9 10 11 12 14 16 14 8 6 5 5 5 4 3 3 2 2 1 1 1 1 0 0 0 1 0 0 2 3 3 3 3 4 5 5 5 6 6 7 8 8 9 8 8 8 8 8 8 8
9 9 8 8 5 5 7 7 7 8 8 9 9 9 9 8 5 4 4 6 5 4 4 5 4 3 4 5 2 5 6 9 11 11 11 11 11 11 12 13 14 14 13 9 5 5 5 4 4 3 3 2 2 1 1 1 1 0 0 0 0 1 1 2 3 4 3 3 4 4 5 6 6 7 7 7 7 8 8 7 7 7 7 8 9
10 10 9 8 7 5 7 7 8 8 9 10 10 10 10 10 10 6 4 4 4 4 5 5 5 3 1 2 4 7 5 9 10 11 11 11 12 12 13 14 14 13 8 4 4 4 4 3 3 3 3 2 2 2 1 2 0 0 0 0 1 1 1 2 1 3 3 4 5 5 5 6 6 6 6 6 7 8 7 7 7 7 7 8 8
11 10 9 10 10 9 8 7 8 8 8 9 9 9 9 10 9 10 9 7 5 3 4 3 4 6 5 4 3 4 7 10 10 12 12 12 13 14 13 9 10 9 5 4 4 4 3 3 4 4 4 2 2 2 1 1 0 0 0 0 1 2 3 3 2 2 3 3 4 4 5 5 5 7 7 7 7 7 8 7 7 7 7 8 8
11 10 8 7 9 10 9 8 8 8 8 8 9 9 9 9 9 10 11 10 8 8 7 5 3 2 3 5 6 6 8 10 11 12 13 14 14 15 13 10 8 6 4 5 5 5 4 3 3 3 3 2 2 2 1 2 1 0 0 0 1 2 2 2 3 3 3 3 4 4 4 6 6 6 7 7 8 8 8 8 7 7 8 8 9
12 11 10 9 9 10 9 9 8 8 8 9 9 9 8 8 8 8 8 9 8 7 7 6 7 4 3 4 7 8 8 10 12 13 14 15 16 16 8 8 8 7 5 5 6 5 5 4 4 3 3 3 3 2 2 2 1 0 2 1 1 1 2 2 2 3 4 4 4 4 5 5 6 6 7 7 7 8 8 8 8 8 8 9 8
10 10 8 7 8 7 9 9 9 7 5 6 7 7 6 6 6 7 7 8 8 8 8 6 6 6 7 5 6 6 7 9 11 12 13 14 15 8 5 6 5 6 5 5 6 6 3 3 3 3 3 3 2 3 2 2 1 1 0 1 2 1 2 3 3 3 3 4 4 4 5 6 6 7 7 8 8 8 8 8 8 8 8 9 10
10 9 9 9 8 9 8 8 7 2 4 7 7 6 5 6 6 6 5 5 4 4 5 6 5 5 4 4 7 6 9 11 13 11 9 9 7 6 6 6 8 6 6 5 6 5 3 3 4 3 3 3 3 3 2 1 1 0 0 0 1 1 2 4 3 2 3 3 4 4 5 6 6 7 7 8 8 8 8 8 8 8 8 9 8
9 11 11 12 11 8 6 7 7 5 5 5 5 4 4 3 3 4 4 3 4 4 4 5 5 5 3 5 7 10 12 8 8 8 9 9 7 5 5 6 6 6 6 5 5 4 3 3 3 2 2 2 2 2 1 1 0 0 1 1 2 2 1 2 2 2 3 5 4 4 5 6 7 7 7 7 7 8 8 8 8 8 8 9 8
8 8 8 12 9 8 7 5 5 5 4 4 3 2 3 3 2 2 3 3 3 2 3 3 4 3 4 5 8 8 6 7 7 8 8 8 7 5 5 6 5 6 5 4 4 3 3 2 2 2 2 2 2 1 1 0 0 0 0 1 2 2 2 2 3 3 3 4 5 5 6 6 7 7 7 7 7 8 8 8 8 8 8 8 9
6 7 6 4 7 6 7 6 6 5 4 3 3 5 3 3 4 3 4 4 4 4 4 5 3 3 3 5 6 5 6 6 7 6 6 6 4 3 3 4 4 4 4 4 4 3 3 3 2 2 2 2 2 2 1 1 0 0 1 2 2 2 2 2 2 2 3 3 4 5 6 7 7 7 7 8 8 8 7 7 8 7 8 8 9
6 5 5 5 6 6 5 5 3 2 2 1 3 3 2 4 4 3 2 3 3 3 2 4 4 4 6 8 7 6 7 7 7 7 6 6 3 2 2 3 5 4 4 3 3 3 3 2 2 2 2 2 2 1 1 0 0 1 1 2 2 2 3 3 2 3 3 3 3 4 6 6 7 7 8 8 8 8 8 8 8 8 8 8 9
4 5 5 5 6 4 3 2 2 0 2 2 1 3 5 3 1 1 2 4 4 5 5 5 6 7 7 7 9 8 7 7 7 5 4 4 4 3 3 3 3 3 3 3 2 2 2 2 2 2 2 1 0 1 0 0 1 2 2 2 2 3 3 3 3 3 3 3 3 4 6 7 6 7 7 7 8 8 8 8 8 8 8 8 8
6 6 4 3 2 2 1 1 3 5 4 6 6 5 3 3 3 4 4 5 5 6 7 7 7 6 5 6 7 6 5 5 4 4 5 4 4 4 4 4 4 4 4 3 2 2 2 3 3 1 1 2 2 2 1 1 2 2 2 2 2 2 3 3 3 4 4 5 5 5 6 6 7 7 7 7 8 8 8 8 8 8 8 9 9
4 3 3 3 3 3 4 5 5 5 5 4 4 5 5 6 6 7 7 8 9 8 7 6 5 5 5 5 5 5 6 5 5 4 4 4 4 4 4 4 4 4 3 3 2 1 1 0 2 2 2 2 1 1 0 1 2 2 2 3 2 2 3 3 3 4 4 5 5 6 6 6 7 7 7 8 8 8 8 9 9 10 9 8 9
3 3 4 4 4 5 5 5 5 5 5 5 5 6 6 6 6 6 6 7 7 8 7 6 5 5 5 5 5 5 6 5 5 5 5 5 5 4 4 4 4 4 3 3 2 2 2 2 2 2 2 1 1 0 0 0 1 1 1 1 2 2 2 3 4 5 5 6 6 7 7 7 7 7 8 8 8 8 9 9 9 8 8 9 9
5 5 4 4 4 5 4 4 4 5 6 6 5 5 4 5 6 6 6 6 6 7 7 7 7 5 5 5 5 5 6 5 5 5 5 5 5 5 4 4 3 3 3 3 3 3 3 2 2 2 1 1 2 1 1 1 1 1 1 1 2 3 3 5 6 6 6 6 6 7 7 8 8 8 8 8 8 8 9 9 9 10 9 8 8
5 5 5 5 5 5 5 5 6 6 6 5 5 5 5 5 6 6 6 6 6 7 7 7 7 7 7 6 7 6 6 5 6 6 5 5 4 4 4 3 3 3 3 2 2 2 2 2 2 2 1 1 1 1 1 1 1 1 2 1 3 5 7 8 6 6 6 7 7 8 8 8 8 8 8 9 9 8 9 9 9 9 9 9 7
5 5 5 6 6 6 6 6 6 6 7 6 6 6 6 6 6 6 6 6 5 6 7 7 7 7 7 7 7 7 7 7 6 5 5 5 4 4 4 3 3 3 2 3 3 3 3 2 2 1 1 1 1 1 1 1 1 1 2 2 5 9 9 9 8 6 8 8 8 8 8 8 9 9 9 9 8 9 9 9 9 9 9 8 8
6 6 6 6 6 6 6 6 6 6 6 6 6 6 6 6 6 5 5 5 6 7 7 7 8 8 8 8 7 7 7 6 5 4 4 4 4 3 3 3 3 3 2 2 2 2 2 2 1 1 1 1 1 1 1 1 1 2 3 4 7 10 10 11 10 9 8 7 8 8 8 8 8 8 8 8 8 9 9 9 9 8 8 8 8
5 6 6 6 6 6 5 6 7 7 7 7 7 6 6 6 6 6 7 7 7 7 7 7 7 7 7 7 7 6 6 5 5 4 4 4 4 4 4 4 4 3 3 3 3 3 2 2 2 1 1 1 2 1 1 1 2 3 5 6 7 10 11 11 9 10 12 11 9 8 7 7 7 8 8 7 7 8 8 9 9 8 8 8 8
Wind_Direction
165 167 174 189 190 191 192 186 168 158 152 155 160 164 161 159 158 158 156 162 160 168 173 169 167 168 162 162 154 154 151 151 149 147 138 127 114 108 131 130 129 110 112 125 133 134 107 98 108 96 71 65 79 81 66 72 80 81 95 107 115 121 110 116 124 120 122 125 131 89 76 236 109 33 61 68 27 117 170 53 31 354 9 324 123
160 166 179 183 190 186 184 178 160 154 155 156 160 162 170 168 162 160 163 161 167 171 175 177 175 177 171 165 162 155 158 153 159 160 148 146 141 149 150 151 109 101 129 138 113 66 125 182 111 103 147 70 136 159 122 147 143 138 125 116 111 102 75 124 128 125 126 159 140 134 123 264 138 101 82 16 63 333 6 32 170 349 8 340 316
164 170 175 182 180 175 169 161 153 151 158 165 163 167 172 171 166 167 169 165 171 176 177 181 185 184 178 175 169 163 165 158 163 166 160 165 162 159 167 160 160 154 169 173 186 135 201 193 177 155 203 174 214 48 91 228 174 97 113 111 102 100 97 86 136 128 135 115 150 153 107 89 2 56 68 112 11 321 324 13 326 335 338 322 317
170 172 171 169 166 163 158 146 149 156 163 174 169 169 176 175 174 174 174 173 174 179 179 184 185 191 188 187 178 177 172 167 173 178 171 166 167 163 169 174 180 181 182 194 181 184 225 235 215 202 199 207 208 175 195 138 220 129 146 132 130 117 111 119 1 48 168 161 131 321 98 158 159 60 20 231 184 273 325 345 318 288 316 317 307
154 164 171 168 159 153 148 150 161 168 172 174 175 174 178 175 172 179 176 180 179 180 183 187 184 191 195 197 186 183 182 181 175 179 170 185 178 169 184 183 190 197 194 197 196 205 214 224 235 236 215 233 211 231 172 182 206 171 190 161 159 138 156 192 123 186 249 150 152 118 156 154 22 25 5 348 342 316 331 334 318 309 306 302 300
147 151 151 154 160 161 156 159 169 176 177 178 179 178 181 181 174 182 183 184 183 187 187 184 191 192 193 204 191 183 186 180 197 196 194 189 200 200 207 201 206 213 201 212 209 204 211 220 217 212 212 230 234 232 225 209 212 209 213 226 172 157 160 156 196 170 223 187 202 170 184 342 212 216 344 345 330 328 332 338 328 306 305 308 312
140 145 150 157 157 164 167 171 173 183 184 182 179 177 181 183 179 178 184 191 187 191 193 194 196 204 201 198 202 198 185 184 182 194 208 208 212 207 203 205 211 212 214 214 222 223 229 226 222 216 214 214 219 232 221 229 238 250 222 229 240 175 201 218 214 208 251 252 228 302 262 169 273 332 83 356 287 297 324 332 324 330 318 313 308
126 127 135 141 154 165 170 174 178 180 178 177 178 178 177 178 179 170 176 187 192 195 196 199 187 204 196 201 194 176 183 194 189 190 210 204 209 211 209 214 220 210 207 211 208 215 224 231 229 226 223 223 223 226 216 220 242 249 240 239 239 225 231 215 230 246 248 261 305 302 301 307 260 209 322 275 331 333 358 333 318 320 318 314 299
123 122 122 131 136 147 157 164 172 169 170 170 174 174 176 174 168 164 172 179 188 192 189 183 181 188 183 192 189 187 213 205 187 237 226 216 217 216 217 220 218 219 211 208 203 214 224 227 233 234 228 222 186 229 306 348 240 219 245 243 251 249 253 246 235 255 269 278 270 243 289 298 313 340 330 337 344 339 331 316 304 305 311 307 306
117 113 111 108 118 126 130 137 144 154 170 166 170 168 167 164 163 163 166 155 160 177 186 185 188 193 201 186 175 158 156 89 49 34 6 326 231 222 197 212 214 209 217 218 210 215 228 236 233 192 18 194 184 193 207 155 339 262 254 247 249 277 271 262 268 288 295 282 290 337 310 313 328 333 325 339 344 321 315 315 307 312 308 304 304
103 100 100 101 103 111 119 125 132 144 155 155 150 156 108 68 33 359 31 11 3 70 200 202 199 211 207 173 151 165 120 76 61 60 40 330 308 188 182 165 175 183 191 212 237 238 231 216 230 153 173 196 192 179 207 173 157 304 50 44 77 162 201 281 285 285 299 315 346 300 318 316 329 332 318 338 338 338 321 314 305 306 311 317 312
91 93 94 119 126 133 130 134 137 125 142 139 132 117 114 126 132 153 155 167 179 239 262 267 232 183 169 170 159 130 87 56 45 71 89 266 282 288 132 125 119 105 93 5 300 293 285 267 234 159 216 233 214 174 176 126 123 96 88 86 78 61 53 34 272 249 290 292 289 320 319 333 336 313 330 343 338 326 315 304 298 304 308 304 302
93 91 96 117 135 139 148 148 140 146 144 143 142 142 146 163 167 163 163 172 142 210 247 183 169 146 140 126 117 112 97 56 234 164 162 199 248 272 112 78 93 75 36 29 346 326 316 306 335 157 102 85 205 189 158 118 96 106 105 95 80 82 79 62 45 31 349 295 324 323 3 352 316 347 20 344 330 306 303 296 304 306 300 293 294
85 78 72 78 83 95 117 138 141 149 158 156 156 144 139 137 126 130 145 146 124 116 141 150 123 111 105 113 114 105 94 66 324 167 182 191 229 266 101 91 75 76 69 57 43 11 352 335 301 155 127 176 188 156 151 142 143 145 148 141 120 103 90 88 84 56 25 17 353 313 18 333 315 342 352 337 317 307 305 300 305 300 296 292 299
86 81 75 70 77 91 105 108 110 121 144 150 153 147 145 129 137 145 140 129 133 155 153 118 102 101 102 94 94 90 84 54 68 178 202 214 228 264 123 146 117 95 83 75 56 53 42 45 25 67 111 165 86 128 148 152 154 155 149 140 132 124 100 87 61 58 81 50 15 341 328 305 308 332 315 314 300 294 294 292 291 287 285 282 272
84 88 99 102 97 92 90 93 107 123 132 140 143 134 127 127 125 125 125 122 125 123 117 115 114 112 104 107 104 97 79 44 87 163 195 217 235 246 173 156 113 95 88 68 66 62 59 62 87 86 90 103 62 45 128 143 148 149 144 134 125 106 81 63 36 29 21 18 19 16 24 41 19 3 2 338 308 298 292 283 273 265 269 281 289
124 123 111 105 104 106 107 103 89 89 101 115 119 117 116 117 118 124 127 131 137 139 134 136 131 124 123 119 117 116 109 61 53 177 215 239 256 233 166 176 120 115 94 103 87 66 44 22 77 96 104 99 56 53 29 258 147 156 144 140 135 134 128 118 73 33 30 47 53 60 52 75 231 258 274 305 297 307 296 284 275 289 296 292 292
110 108 105 108 115 114 114 117 116 110 111 103 104 109 117 128 127 140 146 147 148 142 146 138 136 123 117 109 73 116 113 95 143 184 238 252 279 261 198 140 136 117 115 96 90 83 57 25 17 102 106 104 63 46 13 307 170 160 148 150 156 150 138 146 164 147 155 219 204 210 200 195 204 220 228 223 232 255 270 283 308 306 288 288 292
103 104 112 119 119 117 141 155 152 143 136 138 133 136 145 143 144 168 164 162 150 168 169 159 148 143 124 111 26 273 123 126 181 212 255 274 285 251 223 150 149 123 118 115 105 103 85 56 41 49 74 78 65 58 19 340 125 120 126 175 180 161 123 162 191 195 186 198 199 201 210 204 219 226 211 199 211 220 255 270 289 289 293 296 296
358 15 157 147 103 143 144 146 150 164 158 146 144 154 151 165 177 194 186 196 179 189 208 181 175 152 145 155 153 164 130 124 122 185 289 293 307 305 226 202 170 161 153 105 123 111 111 99 66 54 75 73 64 52 37 13 31 112 197 225 206 130 123 168 34 340 314 288 297 292 290 270 256 249 257 187 200 217 257 282 283 287 293 295 295
351 338 307 263 227 224 220 216 217 221 209 190 196 193 188 201 191 184 179 183 176 191 197 184 172 160 158 163 144 131 82 119 125 176 185 286 310 318 252 256 213 178 167 206 167 144 128 103 95 76 80 77 75 66 55 36 14 52 43 56 44 20 330 260 140 218 270 278 271 264 257 253 244 251 246 247 258 285 286 283 284 286 292 288 287
355 328 294 279 274 251 230 225 229 235 236 226 201 196 199 195 179 178 181 180 181 176 174 194 193 172 161 173 151 143 103 11 127 151 202 229 286 330 308 162 355 155 180 212 261 245 118 115 116 100 93 88 82 78 69 59 43 69 64 67 37 360 311 302 285 269 282 276 286 287 282 278 282 284 292 287 286 284 294 289 286 289 294 298 296
331 320 316 302 284 271 259 243 231 229 229 220 213 210 199 196 193 194 192 189 188 181 182 190 192 179 177 176 167 160 151 134 32 135 153 258 323 340 351 12 41 294 269 281 274 119 104 104 105 105 102 100 94 91 93 95 86 86 102 97 126 267 271 264 327 289 289 296 294 290 287 286 292 295 294 301 315 329 314 309 305 300 295 288 284
317 311 305 295 291 281 263 241 230 230 224 223 220 213 200 198 199 202 200 200 197 190 191 187 198 190 192 183 177 171 170 153 108 57 121 108 63 35 29 17 13 313 297 290 226 151 141 126 119 119 105 100 92 81 69 66 91 121 135 183 226 252 272 287 258 292 289 272 278 285 298 313 305 299 317 329 323 315 304 300 293 291 288 287 286
311 305 300 300 300 289 285 277 255 234 227 223 227 221 211 207 212 208 207 213 213 209 204 196 203 204 207 196 187 176 172 161 151 98 84 92 75 71 66 47 18 355 275 137 71 78 93 105 120 122 118 111 109 108 103 106 121 137 192 233 248 246 276 307 314 300 291 294 301 312 302 311 325 324 322 312 306 296 287 286 289 292 291 287 284
309 305 301 298 298 294 290 283 263 248 237 228 225 229 225 214 221 218 216 219 218 221 221 215 214 217 213 215 195 182 170 177 165 143 143 125 104 83 75 70 69 56 56 78 88 104 111 117 119 125 131 145 164 148 126 131 169 184 206 238 243 33 332 335 321 304 311 327 323 313 319 322 316 316 309 294 290 295 299 297 297 295 295 295 296
298 294 291 287 285 284 283 278 279 258 240 236 231 230 231 226 224 227 225 227 228 230 229 224 227 233 239 236 227 188 187 193 184 167 173 165 155 140 139 117 113 114 108 113 114 110 126 135 130 113 94 80 75 93 128 157 184 196 201 198 51 46 59 2 338 305 325 322 322 316 315 310 307 298 295 299 297 296 299 299 296 297 302 300 299
291 291 290 285 279 272 268 193 243 262 255 242 236 231 231 232 230 226 224 229 234 235 239 238 237 241 241 242 232 211 207 207 196 183 180 182 176 175 170 159 175 180 149 147 140 132 132 115 127 148 152 168 173 184 176 180 174 161 338 260 233 197 195 157 212 282 326 323 313 309 305 304 301 305 304 300 299 301 306 301 299 299 301 304 300
276 275 277 275 269 266 265 266 264 261 254 248 246 246 240 233 233 236 242 250 266 259 241 234 235 241 245 247 237 239 236 230 212 131 152 160 186 193 181 184 184 188 128 121 131 144 150 166 168 175 182 189 192 199 174 175 155 128 88 337 272 299 359 327 319 338 325 321 315 314 312 307 306 304 301 301 304 308 309 305 305 303 303 301 298
267 265 264 263 264 263 259 255 254 250 245 245 240 215 49 27 3 292 194 64 49 43 30 337 333 271 243 246 258 258 254 271 100 110 114 108 72 52 63 69 93 115 118 139 155 158 174 178 180 186 182 191 195 188 190 184 186 198 127 176 251 50 350 323 323 331 329 311 308 309 311 310 305 307 307 306 307 307 307 302 299 301 300 298 297
260 261 259 255 260 272 273 273 266 261 255 248 245 236 209 154 90 54 47 69 58 53 43 27 4 14 2 255 86 73 93 104 118 123 130 131 120 109 106 108 112 127 140 150 179 178 182 187 186 186 186 190 190 169 166 185 191 213 137 351 306 5 11 319 343 327 316 312 310 310 309 307 305 306 305 307 306 307 307 303 299 298 297 297 295
260 258 258 260 247 243 260 265 265 263 258 254 247 245 244 224 162 81 65 94 103 91 90 82 44 22 10 2 7 130 107 121 134 143 144 138 133 128 126 128 136 144 164 191 186 187 188 190 185 182 180 178 159 159 182 161 157 193 242 253 342 29 337 326 350 313 311 310 312 312 310 309 307 306 305 306 307 304 305 307 307 306 303 300 297
258 257 257 256 255 259 260 258 257 255 255 250 248 245 242 241 234 184 108 74 84 121 144 143 152 166 115 312 13 28 120 144 147 146 148 144 140 140 138 141 147 155 158 214 203 186 186 183 182 167 177 169 161 169 159 152 139 130 60 358 330 22 347 20 259 292 313 313 311 310 315 313 310 307 303 304 305 306 307 305 307 309 308 304 300
256 256 254 251 252 257 260 266 263 260 257 259 257 252 245 246 245 248 221 169 155 134 121 144 161 154 180 195 206 156 136 149 159 154 150 146 140 137 134 141 146 162 195 204 197 179 172 182 175 178 166 151 149 145 168 146 125 96 74 51 336 12 350 340 330 336 317 314 310 317 316 315 313 309 309 309 306 305 305 309 312 310 310 306 303
258 260 254 273 267 257 259 265 269 266 263 259 252 245 246 244 247 243 245 234 223 209 194 158 180 248 158 179 185 171 165 164 164 159 151 149 144 139 129 134 152 181 217 217 176 180 171 174 170 164 153 151 158 157 151 161 132 127 89 15 353 6 344 328 326 343 328 316 310 316 324 313 310 313 313 311 311 310 308 308 308 309 306 303 301
256 254 254 220 227 241 245 252 260 263 259 253 251 254 249 242 227 233 236 241 237 226 216 170 146 118 102 74 149 170 170 167 164 158 156 153 151 148 154 166 163 169 175 176 175 176 171 166 154 155 150 155 163 170 157 154 171 136 33 6 359 359 348 340 337 341 336 325 326 326 321 314 320 318 315 312 307 307 308 309 307 305 299 294 297
260 259 248 251 244 239 241 245 253 268 295 284 264 249 244 240 235 230 223 221 224 230 235 193 149 142 155 132 126 134 148 152 150 149 150 153 160 168 153 149 154 160 178 179 177 163 156 140 145 145 162 168 175 163 153 144 123 116 130 321 7 312 8 348 346 348 334 332 333 331 323 321 322 320 318 316 314 313 311 310 307 302 298 296 295
255 253 249 241 238 236 238 242 240 105 257 251 256 255 241 236 229 230 228 229 219 215 220 214 196 206 168 135 137 142 121 113 110 111 124 146 174 177 165 162 164 168 179 180 166 160 145 138 155 171 180 168 163 172 148 150 126 38 27 353 306 32 262 267 193 271 330 329 337 336 332 328 324 324 322 318 315 313 313 312 311 308 303 298 298
252 245 254 290 303 291 259 248 242 235 244 232 238 247 261 259 258 257 234 213 192 213 222 210 195 219 176 143 143 129 134 145 159 158 160 170 176 168 164 172 174 177 179 166 154 153 140 147 162 167 179 156 148 156 161 131 89 43 6 312 334 345 332 335 360 334 338 347 339 340 335 331 328 327 324 317 316 316 315 313 310 306 302 302 303
255 260 221 215 246 251 268 249 240 236 240 248 235 214 184 220 213 245 258 232 217 203 211 217 223 209 174 171 151 158 157 154 156 158 161 165 171 171 172 172 174 166 155 147 143 133 137 157 167 165 156 148 174 156 108 78 271 87 302 344 338 339 335 342 354 343 347 339 340 341 335 331 329 327 325 324 323 319 309 306 309 306 303 303 302
255 255 271 200 250 228 209 233 236 242 236 227 212 215 234 240 239 229 223 233 234 230 227 216 192 172 133 124 110 140 144 140 139 142 147 149 140 125 138 138 137 138 139 140 139 147 164 168 174 157 153 152 145 163 180 196 155 342 8 336 330 343 332 354 344 352 341 318 336 339 335 332 330 328 325 326 321 313 312 312 313 314 312 307 304
240 251 251 225 225 231 204 215 210 145 223 179 274 288 223 200 228 227 225 219 194 183 174 146 128 123 85 94 108 91 107 115 116 117 114 109 112 120 115 114 120 127 129 130 139 157 168 156 167 156 134 142 197 186 157 189 323 342 337 347 347 347 340 347 360 360 323 322 322 329 333 325 317 310 312 317 320 322 319 321 322 314 309 309 308
258 256 233 185 205 201 207 222 234 16 36 38 29 34 342 319 218 180 164 156 146 139 126 123 114 100 88 78 89 97 114 113 112 110 117 122 122 113 109 110 114 112 116 119 134 146 157 159 149 142 156 135 191 139 155 41 14 337 345 348 347 356 340 348 349 344 338 326 319 327 318 311 311 317 321 322 321 321 324 323 325 322 315 310 311
240 229 188 166 150 140 167 102 72 64 61 52 49 50 69 99 119 141 137 131 120 108 110 114 109 98 99 90 85 81 85 88 89 90 93 99 105 112 108 105 100 102 107 113 125 148 147 153 168 132 102 144 88 26 13 34 1 341 346 342 349 356 344 358 347 345 338 331 323 313 321 317 311 308 314 318 322 325 325 326 325 328 322 314 312
211 142 141 150 132 121 107 104 105 93 89 84 75 78 87 96 98 98 101 104 101 97 91 83 78 88 103 103 89 84 82 85 90 93 98 103 104 104 106 106 109 109 104 99 98 121 121 104 90 126 169 130 135 170 118 48 7 348 4 356 342 355 5 354 341 338 327 316 311 313 318 316 316 314 312 316 319 320 323 328 328 320 318 319 317
93 82 85 94 111 121 124 117 112 105 101 93 91 88 79 75 74 71 78 86 94 99 101 97 90 79 77 71 77 81 87 96 105 114 119 118 115 110 105 104 112 134 138 121 114 75 95 129 133 136 144 127 106 43 97 259 217 72 332 7 4 5 351 351 345 329 322 315 312 310 308 305 304 307 305 306 309 314 319 322 320 323 324 319 316
67 67 74 87 98 104 99 104 95 96 103 102 106 104 91 78 79 76 69 73 99 113 116 114 108 97 93 90 90 96 100 101 104 107 116 110 106 106 113 122 123 110 104 112 126 127 120 110 111 118 88 65 107 75 341 333 352 53 357 23 31 3 1 350 329 316 310 307 303 298 299 300 299 300 302 309 313 314 317 320 326 322 323 324 319
66 67 71 86 100 101 99 95 93 91 89 85 83 85 87 85 86 85 91 88 90 100 110 118 121 121 116 112 115 117 121 120 115 114 115 110 104 101 107 115 119 119 113 112 110 103 112 114 117 105 116 104 38 33 34 345 359 6 1 15 33 7 342 329 319 309 306 308 303 293 289 288 292 297 302 306 307 311 314 323 324 325 327 326 325
61 63 68 69 75 80 82 84 88 93 99 97 93 86 85 84 83 87 94 100 107 106 108 112 113 114 116 117 118 115 115 116 115 114 113 110 111 112 107 98 103 114 124 124 122 117 110 96 90 95 66 46 45 12 32 34 355 20 6 7 8 347 333 329 317 313 311 302 291 291 285 283 284 289 294 296 298 309 320 321 324 324 322 321 323
59 63 69 72 81 91 98 100 100 103 104 104 100 98 100 103 106 114 122 121 114 109 108 109 111 113 114 115 114 114 114 114 114 112 110 108 105 104 107 114 118 120 128 135 125 121 118 110 106 80 51 34 25 20 25 46 28 13 2 1 348 342 339 332 320 316 314 309 302 292 288 285 288 291 297 299 304 315 320 326 327 324 322 320 322
71 75 77 77 80 92 98 102 104 107 107 108 109 109 108 109 112 114 112 109 107 105 103 103 103 105 106 107 109 112 110 106 101 94 92 95 102 106 112 118 124 126 118 117 116 109 95 88 80 73 58 62 51 58 50 41 28 8 340 330 338 344 340 337 329 325 316 310 297 282 272 281 291 296 299 306 316 318 323 320 321 323 322 323 328